Location: Noordwijk
(52.2400°N, 4.4500°E)
Time: 21:38:24
(UTC+00:00)

CAS-4B - Pass Details

Date: 08 December 2022
Orbit: 515 x 531 km, 43.0° (Epoch: 04 February)

Event Time Altitude Azimuth Distance (km) Brightness Sun altitude
Exits shadow 04:26:43 11° 162° (SSE) 1,690 ? -27.9°
Maximum altitude 04:27:13 12° 154° (SSE) 1,678 ? -27.9°
Drops below altitude 10° 04:28:35 10° 134° (SE) 1,775 ? -27.7°
Sets 04:32:13 0° 101° (E) 2,674 ? -27.1°
